Weather History for Newport, VT

Change the Weather History Date:

Monday, December 31, 2012

  Actual Average Record
Temperature  
Mean Temperature 18 °F -  
Max Temperature 28 °F 26 °F 58 °F (1965)
Min Temperature 9 °F 3 °F -21 °F (1952)
Degree Days  
Heating Degree Days 46    
Moisture  
Dew Point 14 °F    
Average Humidity 80    
Maximum Humidity 85    
Minimum Humidity 72    
Precipitation  
Precipitation 0.00 in - - ()
Sea Level Pressure  
Sea Level Pressure 29.85 in    
Wind  
Wind Speed 5 mph (South)    
Max Wind Speed 13 mph    
Max Gust Speed 16 mph    
Visibility 7 miles    
Events Snow    
Averages and records for this station are not official NWS values.
T = Trace of Precipitation, MM = Missing Value Source: NWS Daily Summary

Daily Weather History Graph

Daily Weather History Graph

Search for Another Location

Airport:

Trip Planner

Search our weather history database for the weather conditions in past years. The results will help you decide how hot, cold, wet, or windy it might be!

Date:

Astronomy

Dec. 31, 2012 Rise Set
Actual Time 7:26 AM EST 4:17 PM EST
Civil Twilight 6:53 AM EST 4:51 PM EST
Nautical Twilight 6:16 AM EST 5:28 PM EST
Astronomical Twilight 5:40 AM EST 6:04 PM EST
Moon 7:55 PM EST (12/31) 8:58 AM EST (12/31)
Length of Visible Light 9h 58m
Length of Day
8h 51m
Waning Gibbous, 90% of the Moon is Illuminated
Dec 31
Waning Gibbous
Jan 4
Last Quarter
Jan 11
New
Jan 18
First Quarter
Jan 26
Full

Hourly Weather History & Observations

Time (EST) Temp. Windchill Dew Point Humidity Pressure Visibility Wind Dir Wind Speed Gust Speed Precip Events Conditions
12:15 AM 9.5 °F -2.6 °F 2.1 °F 72% 30.00 in 10.0 mi WNW 8.1 mph - N/A   Mostly Cloudy
12:35 AM 9.7 °F -3.3 °F 2.7 °F 73% 30.00 in 10.0 mi WNW 9.2 mph - N/A   Overcast
12:55 AM 10.6 °F -0.2 °F 3.4 °F 73% 29.99 in 10.0 mi WNW 6.9 mph - N/A   Overcast
1:15 AM 11.1 °F 3.1 °F 3.9 °F 73% 30.00 in 10.0 mi WNW 4.6 mph - N/A   Overcast
1:35 AM 11.7 °F 0.0 °F 4.1 °F 72% 29.99 in 10.0 mi NW 8.1 mph - N/A   Overcast
1:55 AM 11.8 °F 0.3 °F 4.5 °F 72% 30.00 in 10.0 mi NNW 8.1 mph - N/A   Overcast
2:15 AM 12.0 °F 1.5 °F 4.5 °F 72% 30.00 in 10.0 mi North 6.9 mph - N/A   Overcast
2:35 AM 11.7 °F 3.7 °F 4.5 °F 73% 30.00 in 10.0 mi North 4.6 mph - N/A   Overcast
2:55 AM 12.2 °F - 4.6 °F 72% 30.00 in 10.0 mi Calm Calm - N/A   Overcast
3:15 AM 12.2 °F - 5.0 °F 73% 30.00 in 10.0 mi Calm Calm - N/A   Overcast
3:35 AM 13.1 °F - 5.9 °F 73% 29.99 in 10.0 mi Calm Calm - N/A   Overcast
3:55 AM 12.7 °F - 5.5 °F 73% 29.99 in 10.0 mi Calm Calm - N/A   Overcast
4:15 AM 13.1 °F - 5.9 °F 73% 29.97 in 10.0 mi Calm Calm - N/A   Overcast
4:35 AM 13.5 °F 4.4 °F 6.8 °F 75% 29.97 in 10.0 mi WNW 5.8 mph - N/A   Overcast
4:55 AM 13.6 °F 6.0 °F 7.7 °F 77% 29.97 in 5.0 mi West 4.6 mph - N/A Snow Light Snow
5:15 AM 14.0 °F 6.5 °F 8.6 °F 79% 29.95 in 2.5 mi WNW 4.6 mph - N/A Snow Light Snow
5:35 AM 13.5 °F 7.5 °F 8.4 °F 80% 29.95 in 2.0 mi SSW 3.5 mph - N/A Snow Light Snow
5:55 AM 13.5 °F - 8.6 °F 81% 29.96 in 2.0 mi Calm Calm - N/A Snow Light Snow
6:15 AM 13.5 °F - 8.8 °F 82% 29.96 in 2.5 mi Calm Calm - N/A Snow Light Snow
6:35 AM 13.8 °F - 9.5 °F 83% 29.95 in 1.0 mi Calm Calm - N/A Snow Snow
7:35 AM 13.6 °F - 9.5 °F 84% 29.95 in 2.5 mi Calm Calm - N/A Snow Light Snow
7:55 AM 13.5 °F - 9.5 °F 84% 29.95 in 1.8 mi Calm Calm - N/A Snow Light Snow
8:35 AM 13.8 °F - 10.0 °F 85% 29.94 in 2.0 mi Calm Calm - N/A Snow Light Snow
8:55 AM 14.4 °F - 10.4 °F 84% 29.92 in 3.0 mi Calm Calm - N/A Snow Light Snow
9:15 AM 14.9 °F 7.5 °F 10.8 °F 84% 29.92 in 5.0 mi SSE 4.6 mph - N/A Snow Light Snow
9:35 AM 15.8 °F - 11.3 °F 82% 29.92 in 1.5 mi Calm Calm - N/A Snow Light Snow
9:55 AM 16.3 °F - 12.0 °F 83% 29.92 in 1.2 mi Calm Calm - N/A Snow Light Snow
10:15 AM 17.4 °F 12.1 °F 12.9 °F 83% 29.92 in 2.0 mi SE 3.5 mph - N/A Snow Light Snow
10:35 AM 17.6 °F 10.7 °F 13.1 °F 83% 29.91 in 2.0 mi East 4.6 mph - N/A Snow Light Snow
10:55 AM 18.0 °F 12.7 °F 13.6 °F 83% 29.91 in 1.8 mi East 3.5 mph - N/A Snow Light Snow
11:15 AM 17.8 °F - 13.8 °F 84% 29.90 in 2.5 mi Calm Calm - N/A Snow Light Snow
11:35 AM 18.5 °F - 14.7 °F 85% 29.89 in 5.0 mi Calm Calm - N/A Snow Light Snow
11:55 AM 18.7 °F 13.5 °F 14.7 °F 85% 29.87 in 5.0 mi East 3.5 mph - N/A Snow Light Snow
12:15 PM 19.2 °F 14.1 °F 15.4 °F 85% 29.86 in 5.0 mi SE 3.5 mph - N/A Snow Light Snow
12:35 PM 20.3 °F - 16.2 °F 84% 29.84 in 7.0 mi Calm Calm - N/A Snow Light Snow
12:55 PM 22.1 °F - 17.4 °F 82% 29.83 in 10.0 mi Calm Calm - N/A Snow Light Snow
1:15 PM 22.6 °F - 17.6 °F 81% 29.82 in 4.0 mi Calm Calm - N/A Snow Light Snow
1:35 PM 23.0 °F 17.0 °F 18.3 °F 82% 29.81 in 7.0 mi SSE 4.6 mph - N/A Snow Light Snow
1:55 PM 24.3 °F 18.4 °F 19.0 °F 80% 29.80 in 10.0 mi South 4.6 mph - N/A   Overcast
2:15 PM 24.3 °F 18.4 °F 19.2 °F 81% 29.80 in 10.0 mi SSE 4.6 mph - N/A   Overcast
2:35 PM 23.9 °F 15.8 °F 19.4 °F 83% 29.80 in 7.0 mi SSE 6.9 mph - N/A   Overcast
2:55 PM 23.9 °F 18.0 °F 19.4 °F 83% 29.79 in 7.0 mi SSE 4.6 mph - N/A   Overcast
3:15 PM 24.8 °F 16.9 °F 19.9 °F 82% 29.78 in 10.0 mi South 6.9 mph - N/A   Overcast
3:35 PM 25.2 °F 18.3 °F 20.1 °F 81% 29.78 in 7.0 mi SSW 5.8 mph - N/A Snow Light Snow
3:55 PM 25.0 °F 19.3 °F 19.9 °F 81% 29.78 in 10.0 mi South 4.6 mph - N/A   Overcast
4:15 PM 24.4 °F 16.5 °F 19.4 °F 81% 29.77 in 10.0 mi SSE 6.9 mph - N/A   Overcast
4:35 PM 23.9 °F 15.8 °F 19.0 °F 82% 29.76 in 10.0 mi South 6.9 mph - N/A   Overcast
4:55 PM 23.7 °F 14.7 °F 18.9 °F 82% 29.76 in 10.0 mi SSE 8.1 mph - N/A   Overcast
5:15 PM 23.5 °F 15.4 °F 18.9 °F 82% 29.75 in 10.0 mi SSE 6.9 mph - N/A   Overcast
5:35 PM 23.5 °F 19.1 °F 19.0 °F 83% 29.75 in 10.0 mi SSE 3.5 mph - N/A   Overcast
5:55 PM 24.1 °F 17.0 °F 19.8 °F 84% 29.74 in 10.0 mi SW 5.8 mph - N/A   Overcast
6:15 PM 24.8 °F 15.3 °F 20.3 °F 83% 29.74 in 10.0 mi SSW 9.2 mph - N/A   Overcast
6:35 PM 26.4 °F 18.9 °F 21.0 °F 80% 29.73 in 10.0 mi South 6.9 mph - N/A   Overcast
6:55 PM 27.3 °F 19.9 °F 21.2 °F 78% 29.72 in 10.0 mi South 6.9 mph - N/A   Overcast
7:15 PM 26.8 °F 17.7 °F 21.0 °F 79% 29.72 in 7.0 mi SSE 9.2 mph - N/A   Overcast
7:35 PM 26.4 °F 15.5 °F 21.0 °F 80% 29.70 in 10.0 mi SSE 12.7 mph 16.1 mph N/A   Overcast
7:55 PM 25.7 °F 17.1 °F 20.3 °F 80% 29.68 in 7.0 mi South 8.1 mph - N/A Snow Light Snow
8:15 PM 25.2 °F 17.3 °F 20.3 °F 82% 29.68 in 7.0 mi South 6.9 mph - N/A Snow Light Snow
8:35 PM 25.2 °F 16.5 °F 20.7 °F 83% 29.67 in 10.0 mi South 8.1 mph - N/A Snow Light Snow
8:55 PM 25.2 °F 17.3 °F 20.8 °F 84% 29.66 in 10.0 mi South 6.9 mph - N/A Snow Light Snow
9:35 PM 26.2 °F 18.6 °F 21.7 °F 83% 29.64 in 7.0 mi SSW 6.9 mph - N/A Snow Light Snow
9:55 PM 27.1 °F 18.2 °F 21.9 °F 81% 29.63 in 7.0 mi SSW 9.2 mph - N/A Snow Light Snow
10:35 PM 28.0 °F 18.6 °F 23.0 °F 81% 29.62 in 7.0 mi SSW 10.4 mph - N/A Snow Light Snow
11:15 PM 28.6 °F 20.7 °F 23.0 °F 80% 29.61 in 7.0 mi SSW 8.1 mph - N/A Snow Light Snow
11:35 PM 28.4 °F 19.7 °F 23.4 °F 81% 29.60 in 7.0 mi SSW 9.2 mph - N/A Snow Light Snow
11:55 PM 28.9 °F 21.1 °F 24.3 °F 83% 29.60 in 2.5 mi SSW 8.1 mph - N/A Snow Light Snow